Location: *
(46.1200°N, 11.2700°E)
Time: 15:39:48
(UTC+00:00)

SJ 16-02 - Pass Details

Date: 02 March 2021
Orbit: 605 x 617 km, 75.0° (Epoch: 23 April)

Event Time Altitude Azimuth Distance (km) Brightness Sun altitude
Rises 19:19:39 0° 346° (NNW) 2,882 5.2 -24.3°
Reaches altitude 10° 19:22:02 10° 354° (N) 1,975 4.2 -24.7°
Enters shadow 19:24:08 24° 13° (NNE) 1,274 3.0 -25.0°
